Regional Weather Roundup
Issued by NWS

Home | Current Version | Previous Version | Text Only | Print | Product List | Glossary Off
Versions: 1 2 3 4 5 6 7 8 9 10 11 12 13 14 15 16 17 18 19 20 21 22 23 24 25 26 27 28 29 30 31 32 33 34 35 36 37 38 39 40 41 42 43 44 45 46 47 48 49 50

584
ASUS43 KMKX 051500
RWRWI

WISCONSIN REGIONAL WEATHER ROUNDUP
NATIONAL WEATHER SERVICE MILWAUKEE/SULLIVAN WI
1000 AM CDT THU MAY 05 2016

NOTE: "FAIR" INDICATES FEW OR NO CLOUDS BELOW 12,000 FEET WITH NO
SIGNIFICANT WEATHER AND/OR OBSTRUCTIONS TO VISIBILITY.

WIZ001-002-006>008-014>016-023>028-051600-
NORTHWEST WISCONSIN

CITY           SKY/WX    TMP DP  RH WIND       PRES   REMARKS
SUPERIOR ARPT  MOSUNNY   49  40  73 SW13G18   29.99F
ASHLAND        MOSUNNY   59  32  36 SW10      30.01F
HAYWARD        MOSUNNY   55  31  39 SW8       30.04F
SIREN          CLOUDY    49  41  75 S6        30.06S
CUMBERLAND     CLOUDY    54  32  43 SW6       30.05S
RICE LAKE      SUNNY     55  31  38 S5        30.08R
CHETEK         SUNNY     54  34  46 SW5       30.07S
LADYSMITH      CLOUDY    50  35  57 S3        30.08S
EAU CLAIRE     NOT AVBL
MENOMONIE      SUNNY     57  34  41 S8        30.07F
NEW RICHMOND   CLOUDY    50  34  54 SW7       30.07S
OSCEOLA        CLOUDY    53  37  54 SW5       30.10R
$$

WIZ003>005-009-010-017-018-051600-
NORTH CENTRAL WISCONSIN

CITY           SKY/WX    TMP DP  RH WIND       PRES   REMARKS
MANITOWISH WTR SUNNY     51  34  53 W3        30.04S
ARBOR VITAE    SUNNY     52  33  48 W7        30.04R
WOODRUFF       SUNNY     52  33  48 W7        30.04R
RHINELANDER    SUNNY     53  31  42 NW7       30.04S
EAGLE RIVER    SUNNY     50  30  45 W3        30.03S
LAND O LAKES   SUNNY     52  28  40 W6        30.03S
PHILLIPS       PTSUNNY   49  33  53 SW5       30.05S
TOMAHAWK       SUNNY     49  33  52 CALM      30.06R
MEDFORD        SUNNY     48  35  60 CALM      30.06S
MERRILL        SUNNY    N/A N/A N/A CALM      30.06R
$$

WIZ029-030-035-036-043>047-051600-
CENTRAL WISCONSIN

CITY           SKY/WX    TMP DP  RH WIND       PRES   REMARKS
WAUSAU         SUNNY     51  35  54 NW5       30.04S
MOSINEE        SUNNY     50  36  57 CALM      30.07S
MARSHFIELD     SUNNY     52  35  52 CALM      30.05S
STEVENS POINT  SUNNY     47  33  57 NW3       30.06S
WAUPACA        SUNNY     52  36  54 CALM      30.06S
WAUTOMA        NOT AVBL
WISC RAPIDS    SUNNY     51  34  52 VRB5      30.07F
CAMP DOUGLAS   NOT AVBL
$$

WIZ011>013-019>022-031-037>040-048>050-051600-
NORTHEAST WISCONSIN

CITY           SKY/WX    TMP DP  RH WIND       PRES   REMARKS
ANTIGO         SUNNY     47  36  64 CALM      30.05S
SHAWANO        SUNNY     51  34  53 CALM      30.06R
OCONTO         SUNNY     47  35  62 CALM      30.05R
STURGEON BAY   SUNNY     46  36  66 NW10      30.06S
GREEN BAY      SUNNY     50  36  58 NE7       30.05R
MANITOWOC      NOT AVBL
APPLETON       SUNNY     46  34  61 CALM      30.04R
CLINTONVILLE   SUNNY     46  34  61 CALM      30.05S
OSHKOSH        SUNNY     49  35  58 VRB3      30.05R
$$

WIZ032>034-041-042-053>061-051600-
SOUTHWEST WISCONSIN

CITY           SKY/WX    TMP DP  RH WIND       PRES   REMARKS
LA CROSSE      SUNNY     54  36  50 VRB3      30.09S
SPARTA         SUNNY     51  35  55 CALM      30.09S
VIROQUA        SUNNY     50  35  58 N3        30.08R
BOSCOBEL       SUNNY     54  35  48 VRB3      30.08S
PRAIRIE DU CHI SUNNY     52  34  51 W6        30.08S
PLATTEVILLE    SUNNY     49  38  65 N6        30.07R
$$

WIZ056-057-062-063-064-067-068-051600-
SOUTH CENTRAL WISCONSIN

CITY           SKY/WX    TMP DP  RH WIND       PRES   REMARKS
REEDSBURG      SUNNY     49  35  60 CALM      30.06F
BARABOO/DELLS  SUNNY     48  32  53 CALM      30.07S
LONE ROCK      NOT AVBL
MINERAL POINT  SUNNY     50  36  57 N5        30.07R
MADISON        SUNNY     50  35  56 N10       30.05S
MIDDLETON      SUNNY     50  37  60 N8        30.07R
WATERTOWN      SUNNY     49  39  66 N7        30.04R
MONROE         SUNNY     46  36  66 N8        30.05R
JANESVILLE     SUNNY     52  37  58 N9        30.04R
$$

WIZ051-052-058>065-066-070>072-051600-
SOUTHEAST WISCONSIN

CITY           SKY/WX    TMP DP  RH WIND       PRES   REMARKS
MILWAUKEE      MOSUNNY   48  37  65 NE15      30.03R
WAUKESHA       NOT AVBL
MILWAUKEE/TIMM SUNNY     52  36  54 N7        30.03S
RACINE         MOSUNNY   48  37  65 N18G28    30.04R
BURLINGTON     SUNNY     47  36  64 N10G17    30.02S
KENOSHA        MOSUNNY   50  39  66 N10       30.02R
FOND DU LAC    SUNNY     50  38  63 NE7       30.05R
SHEBOYGAN      SUNNY     51  39  63 NE9       30.03S
WEST BEND      SUNNY     48  36  61 N6        30.03S
JUNEAU         SUNNY     46  36  67 N9        30.06R
$$

LSZ147-162-051600-
LAKE SUPERIOR

STATION/POSITION TIME  TEMP    WIND        PRES    WAVE
                       AIR SEA DIR/SP/G            HT/PER
                 (UTC) (F)     (DEG/KT/KT) (MB)    (FT/S)
W MID LAKE BUOY  1350   38 37  200/  8/  8 1017.5R   1
DEVILS ISLAND    1400   40     200/  6/  8 1016.8F
SAXON HARBOR     1400   52     190/  6/  9 1016.6
$$

LMZ867-665-643>646-051600-
LAKE MICHIGAN

STATION/POSITION TIME  TEMP    WIND        PRES    WAVE
                       AIR SEA DIR/SP/G            HT/PER
                 (UTC) (F)     (DEG/KT/KT) (MB)    (FT/S)
CHAMBERS ISLAND  1400   44     350/  5/  7 1017.3S
N MID LAKE BUOY  1350   38 39  320/  8/  8 1016.7R   1/ 4
NORTHPORT PIER   1400   39     330/ 10/ 11 1017.3R
ALGOMA LAKESHORE 1415           40/  9/ 12   N/A
KEWAUNEE LAKESHO 1400   46      30/  7/  8 1016.2R
SHEBOYGAN LAKESH 1400   43      10/ 14/ 15 1017.7R
PORT WASHINGTON  1400   48      30/  6/ 11 1017.6
S MID LAKE BUOY  1350   40 40   20/ 16/ 17 1015.0R   5/ 6
KENOSHA   LAKESH 1400   43     360/ 17/ 19 1016.3R
$$

TC  - TEMPERATURE IN CELSIUS
VSB - VISIBILITY IN STATUTE MILES
WCI - WIND CHILL INDEX
HX  - HEAT INDEX





USA.gov is the U.S. government's official web portal to all federal, state and local government web resources and services.